COSMOS 2251 DEB, 36442

Orbit data source: Space-Track

COSMOS 2251 DEB, 36442 is space debris in LEO originally from a launch on Wed, 16 Jun 1993 UTC launched from the Plesetsk Missile And Space Complex (PKMTR). The debris from Iridium 33, an American commercial communications satellite, has been tracked extensively since its accidental collision with the defunct Russian satellite Cosmos 2251 in 2009. This event, occurring at high speed in low Earth orbit (LEO), generated thousands of pieces of space debris, significantly increasing the risk of further collisions. The Iridium 33 debris cloud has impacted space traffic management and orbital debris mitigation strategies, making it a subject of ongoing study in space situational awareness.

Loading next visibility...
Identifier
36442, 1993-036BAR
Orbit
LEO
Country
Flag of CISCIS
Related business
Manufacturer
Unknown
Mission
Spacecraft
Bus & Motor
Unknown
Mass
Unknown
Launch date (UTC)
1993-06-16 (32 years ago)
Launch vehicle
Unknown
Launch site
Plesetsk Missile And Space Complex (PKMTR)
Object type
Payload
Rocket body
Debris
Shape & HBR
Unknown shape, 0.1 m
Radar Cross Section
Small (<0.1 m²)

Expand to show TLE details & history
Last TLE update: 22 hours ago

TLE from 22 hours ago
0 COSMOS 2251 DEB
1 36442U 93036BAR 25310.17789963  .00142590  00000-0  71847-2 0  9991
2 36442  73.9539 116.6308 0005095 217.7524 142.3314 15.16443832853594
Epoch: 2025-11-06T04:16Z
TLE epoch observation values (Epoch: 2025-11-06T04:16:10.528Z)
Latitude
-0.00002°
Longitude
6.94698°
Altitude
522.083 km
Speed
7.601 km/s
True Right ascension
07h 46m 31s
True Declination
0° 00' 00"
Sunlit
Object was in daylight at epoch
Visualization orbit readout
Latitude
Unknown
Longitude
Unknown
Altitude
Unknown
Speed
Unknown
Apparent Right ascension
Unknown
Apparent Declination
Unknown
Sunlit
N/A
Visualization observer readout
Local Sidereal Time
22:19:47
Azimuth
Unknown
Elevation
Unknown
Doppler factor
Unknown
Orbital elements
Apogee altitude
517.653 km
Perigee altitude
510.63 km
Semi-major axis
6,892.279 km
Eccentricity
0.00051
Inclination
73.9539°
RAAN
116.6308°
Arg. of periapsis
217.7524°
True anomaly
142.36706°
Mean anomaly
142.3314°
Eccentric anomaly
142.34923°
Mean motion
3.79314 °/min
Orbital period
94.91 mins
BSTAR
0.0071847
Loading maneuver chart data...
Computing Atmospheric mass density...

Documentation

Showing up to 5 results
|